Weather History for Windsor Locks, CT

Change the Weather History Date:

Saturday, February 9, 2013

  Actual Average Record
Temperature  
Mean Temperature 19 °F 28 °F  
Max Temperature 26 °F 37 °F 58 °F (1990)
Min Temperature 12 °F 20 °F -15 °F (1934)
Degree Days  
Heating Degree Days 46 37  
Month to date heating degree days 361 336  
Since 1 July heating degree days 3519 3786  
Cooling Degree Days 0 0  
Month to date cooling degree days 0 0  
Year to date cooling degree days 0 0  
Moisture  
Dew Point 10 °F    
Average Humidity 62    
Maximum Humidity 92    
Minimum Humidity 32    
Precipitation  
Precipitation 4.09 in 0.10 in 1.46 in (1969)
Month to date precipitation 5.45 0.92  
Year to date precipitation 7.20 4.15  
Snow  
Snow 11.60 in 0.40 in 13.00 in (1969)
Month to date snowfall 25.4 3.9  
Since 1 July snowfall 47.1 25.6  
Snow Depth 22.00 in    
Sea Level Pressure  
Sea Level Pressure 29.89 in    
Wind  
Wind Speed 16 mph (NNW)    
Max Wind Speed 30 mph    
Max Gust Speed 40 mph    
Visibility 5 miles    
Events Fog , Snow    
T = Trace of Precipitation, MM = Missing Value Source: NWS Daily Summary

Daily Weather History Graph

Daily Weather History Graph

Search for Another Location

Airport:

Trip Planner

Search our weather history database for the weather conditions in past years. The results will help you decide how hot, cold, wet, or windy it might be!

Date:

Astronomy

Feb. 09, 2013 Rise Set
Actual Time 6:54 AM EST 5:16 PM EST
Civil Twilight 6:25 AM EST 5:45 PM EST
Nautical Twilight 5:52 AM EST 6:18 PM EST
Astronomical Twilight 5:19 AM EST 6:50 PM EST
Moon 6:03 AM EST (2/9) 4:56 PM EST (2/9)
Length of Visible Light 11h 20m
Length of Day
10h 22m
Waning Crescent, 0% of the Moon is Illuminated
Feb 9
Waning Crescent
Feb 10
New
Feb 17
First Quarter
Feb 25
Full
Mar 4
Last Quarter

Hourly Weather History & Observations

Time (EST) Temp. Windchill Dew Point Humidity Pressure Visibility Wind Dir Wind Speed Gust Speed Precip Events Conditions
12:00 AM 19.4 °F 2.5 °F 17.6 °F 93% 29.68 in 0.5 mi North 23.0 mph - 0.01 in Fog , Snow Snow
12:51 AM 19.4 °F 1.8 °F 17.6 °F 93% 29.69 in 0.5 mi North 25.3 mph - N/A Fog , Snow Snow
1:51 AM 19.9 °F 3.9 °F 17.1 °F 89% 29.71 in 0.5 mi NNW 20.7 mph - 0.10 in Fog , Snow Snow
2:36 AM 21.2 °F 4.9 °F 17.6 °F 86% 29.70 in 0.2 mi NNW 23.0 mph - 0.07 in Fog , Snow Heavy Snow
2:46 AM 21.2 °F 5.6 °F 19.4 °F 93% 29.70 in 0.2 mi NNW 20.7 mph - 0.09 in Fog , Snow Snow
2:51 AM 21.9 °F 6.5 °F 19.0 °F 89% 29.70 in 0.2 mi NNW 20.7 mph - 0.10 in Fog , Snow Snow
3:25 AM 23.0 °F 9.6 °F 19.4 °F 86% 29.70 in 0.8 mi NNW 16.1 mph 25.3 mph 0.06 in Snow Light Snow
3:51 AM 23.0 °F 9.6 °F 19.9 °F 88% 29.71 in 0.8 mi NNW 16.1 mph 21.9 mph 0.07 in Snow Light Snow
4:31 AM 24.8 °F 14.6 °F 21.2 °F 86% 29.71 in 0.8 mi NNW 10.4 mph 21.9 mph 0.07 in Snow Light Snow
4:49 AM 24.8 °F 15.3 °F 21.2 °F 86% 29.72 in 1.0 mi NNW 9.2 mph - 0.10 in Snow Light Snow
4:51 AM 24.1 °F 13.7 °F 21.0 °F 88% 29.73 in 1.0 mi North 10.4 mph - 0.10 in Snow Light Snow
5:51 AM 24.1 °F 15.2 °F 21.0 °F 88% 29.75 in 1.0 mi North 8.1 mph - 0.05 in Snow Light Snow
6:47 AM 21.2 °F 10.1 °F 19.4 °F 93% 29.77 in 1.0 mi NNW 10.4 mph - 0.03 in Snow Light Snow
6:51 AM 21.9 °F 11.7 °F 19.0 °F 89% 29.78 in 1.0 mi NNW 9.2 mph - 0.30 in Snow Light Snow
7:51 AM 21.9 °F 7.8 °F 15.1 °F 75% 29.81 in 1.0 mi NNW 17.3 mph 25.3 mph 0.38 in Snow Light Snow
8:18 AM 21.2 °F 7.3 °F 12.2 °F 68% 29.81 in 3.0 mi NNW 16.1 mph 31.1 mph 0.37 in Snow Light Snow
8:39 AM 21.2 °F 7.3 °F 10.4 °F 63% 29.82 in 9.0 mi NNW 16.1 mph 29.9 mph 0.57 in Snow Light Snow
8:51 AM 21.9 °F 8.7 °F 10.9 °F 63% 29.83 in 9.0 mi NNW 15.0 mph 24.2 mph 0.59 in Snow Light Snow
9:51 AM 21.9 °F 6.5 °F 10.0 °F 60% 29.86 in 9.0 mi NNW 20.7 mph 28.8 mph 0.17 in Snow Light Snow
10:51 AM 21.9 °F 7.3 °F 9.0 °F 58% 29.89 in 7.0 mi NNW 18.4 mph 28.8 mph 0.41 in   Mostly Cloudy
11:51 AM 23.0 °F 7.6 °F 8.1 °F 53% 29.91 in 10.0 mi NNW 21.9 mph 29.9 mph 1.57 in   Mostly Cloudy
12:51 PM 23.0 °F 8.7 °F 6.1 °F 48% 29.93 in 8.0 mi NNW 18.4 mph 34.5 mph 0.13 in   Mostly Cloudy
1:11 PM 24.8 °F 11.1 °F 5.0 °F 43% 29.92 in 10.0 mi NNW 18.4 mph 32.2 mph N/A   Mostly Cloudy
1:51 PM 24.1 °F 10.1 °F 3.9 °F 42% 29.95 in 10.0 mi North 18.4 mph 28.8 mph 0.00 in   Mostly Cloudy
2:51 PM 26.1 °F 13.1 °F 1.9 °F 35% 29.98 in 10.0 mi NNW 17.3 mph 35.7 mph 0.00 in   Scattered Clouds
3:51 PM 25.0 °F 10.2 °F -0.0 °F 34% 30.02 in 10.0 mi NNW 21.9 mph 33.4 mph N/A   Scattered Clouds
4:51 PM 24.1 °F 10.1 °F -2.0 °F 32% 30.06 in 10.0 mi NNW 18.4 mph 32.2 mph N/A   Partly Cloudy
5:51 PM 21.9 °F 9.2 °F -4.0 °F 32% 30.11 in 10.0 mi NNW 13.8 mph - N/A   Partly Cloudy
6:51 PM 21.9 °F 9.8 °F -0.9 °F 37% 30.15 in 10.0 mi NNW 12.7 mph 26.5 mph N/A   Clear
7:51 PM 21.0 °F 7.6 °F -0.9 °F 38% 30.17 in 10.0 mi NNW 15.0 mph 20.7 mph N/A   Clear
8:51 PM 19.9 °F 9.3 °F -2.0 °F 38% 30.20 in 10.0 mi North 9.2 mph - N/A   Clear
9:51 PM 19.9 °F 7.3 °F -4.0 °F 35% 30.23 in 10.0 mi NNW 12.7 mph 18.4 mph N/A   Clear
10:51 PM 17.1 °F 8.7 °F -2.9 °F 41% 30.25 in 10.0 mi NNW 5.8 mph - N/A   Clear
11:51 PM 14.0 °F 3.9 °F -5.1 °F 43% 30.28 in 10.0 mi NW 6.9 mph - N/A   Clear